This is the latest recevied weather packets stored in our database for station/object WX6HNX-4. If no packets are shown the sender has not sent any weather packets the latest 10 day(s).
| Time | Temp. | Humidity | Pressure | Rain* | Wind** | Luminosity | Snow |
|---|---|---|---|---|---|---|---|
| 1778148146 | 15.56° C | 70% | 1009.8 hPa | 0 mm | - | - | - |
| 1778147846 | 15.56° C | 69% | 1009.8 hPa | 0 mm | - | - | - |
| 1778147546 | 15.56° C | 70% | 1009.7 hPa | 0 mm | - | - | - |
| 1778143647 | 15° C | 72% | 1010.2 hPa | 0 mm | - | - | - |
| 1778143046 | 15.56° C | 72% | 1010.2 hPa | 0 mm | - | - | - |
| 1778142446 | 15.56° C | 71% | 1010.3 hPa | 0 mm | - | - | - |
| 1778139923 | 15.56° C | 71% | 1010.2 hPa | 0 mm | - | - | - |
| 1778127808 | 17.22° C | 67% | 1009.8 hPa | 0 mm | - | - | - |
| 1778081569 | 15° C | 71% | 1011.5 hPa | 0 mm | - | - | - |
| 1778080631 | 14.44° C | 71% | 1011.6 hPa | 0 mm | - | - | - |
| 1778077931 | 13.33° C | 76% | 1011.4 hPa | 0 mm | - | - | - |
| 1778074506 | 10° C | 86% | 1011.1 hPa | 0 mm | - | - | - |
| 1778069708 | 12.22° C | 80% | 1010.4 hPa | 0 mm | - | - | - |
| 1778066932 | 12.22° C | 79% | 1010.2 hPa | 0 mm | - | - | - |
| 1778065132 | 12.22° C | 77% | 1010 hPa | 0 mm | - | - | - |
| 1778061285 | 10.56° C | 80% | 1009.5 hPa | 0 mm | - | - | - |
| 1778057629 | 11.11° C | 80% | 1009.5 hPa | 0 mm | - | - | - |
| 1778056729 | 10° C | 83% | 1009.5 hPa | 0 mm | - | - | - |
| 1778056429 | 9.44° C | 83% | 1009.6 hPa | 0 mm | - | - | - |
| 1778055530 | 9.44° C | 83% | 1009.5 hPa | 0 mm | - | - | - |
| 1778054629 | 10° C | 81% | 1009.5 hPa | 0 mm | - | - | - |
| 1778052981 | 11.67° C | 74% | 1009.3 hPa | 0 mm | - | - | - |
| 1778052081 | 11.67° C | 74% | 1009.2 hPa | 0 mm | - | - | - |
| 1778050881 | 11.67° C | 74% | 1009.1 hPa | 0 mm | - | - | - |
| 1778049382 | 11.67° C | 74% | 1008.8 hPa | 0 mm | - | - | - |
* Rain latest hour (hover to see other rain measurements)
** Current wind speed in m/s (hover to see current wind gust speed)